Location: Appeville
(49.3218°N, 1.3427°W)
Time: 21:58:19
(UTC+00:00)

Cosmos 1110 Rocket - Pass Details

Date: 08 December 2019
Orbit: 752 x 782 km, 74.0° (Epoch: 26 January)

Event Time Altitude Azimuth Distance (km) Brightness Sun altitude
Rises 07:01:32 0° 205° (SSW) 3,205 7.3 -7.2°
Reaches altitude 10° 07:03:53 10° 206° (SSW) 2,281 6.5 -6.9°
Maximum altitude 07:09:04 81° 293° (WNW) 771 4.0 -6.1°
Drops below altitude 10° 07:14:16 10° 22° (NNE) 2,287 6.4 -5.4°
Sets 07:16:38 0° 23° (NNE) 3,216 7.2 -5.0°
